Terminal Aerodrome Forecast
Issued by NWS

Home | Current Version | Previous Version | Text Only | Print | Product List | Glossary On
Versions: 1 2 3 4 5 6 7 8 9 10 11 12 13 14 15 16 17 18 19 20 21 22 23
000
FTUS45 KRIW 301720
TAFPNA
TAF
KPNA 301720Z 3018/3118 24013G21KT P6SM VCTS FEW050 BKN080CB
     FM302100 27017G25KT P6SM SCT080
     FM310300 29013KT P6SM FEW110
     FM310700 29007KT P6SM SKC
      AMD LTD TO CLD VIS AND WIND=

USA.gov is the U.S. government's official web portal to all federal, state and local government web resources and services.